• Join FlightAware (Why Join?)
  • Login
  • US Flag 
02:27AM EDT


 

Airport Tracker/Info


-or-


 

Live Flight TrackerFlight Track Log ✈ N959TX ✈ 05-Apr-2014 ✈ KAAO - KADS

Flight Track Log - Related Links

Times and Time Zones

All times are in EDT time to prevent confusion due to time zone crossing. See the N959TX flight status page for this flight to view local times or setup timezone preferences in your user account.

Time Position Orientation Groundspeed Altitude Reporting Facility
EDT Latitude Longitude Course Direction KTS MPH feet Rate Location/Type
06:11PM 37.7358 -97.2225 201° Southwest 110 127 1,800  Level Kansas City Center
06:12PM 37.7119 -97.2342 201° Southwest 114 131 2,400 660 Climbing Kansas City Center
06:13PM 37.6828 -97.2389 187° South 111 128 3,000 600 Climbing Kansas City Center
06:13PM 37.6731 -97.2381 176° South 113 130 3,200 660 Climbing Kansas City Center
06:14PM 37.6483 -97.2308 167° South 109 125 3,800 540 Climbing Kansas City Center
06:14PM 37.6419 -97.2297 172° South 113 130 3,800 60 Level Kansas City Center
06:15PM 37.6083 -97.2222 170° South 114 131 3,900 60 Climbing Kansas City Center
06:16PM 37.5756 -97.2161 172° South 147 169 4,000 60 Climbing Kansas City Center
06:16PM 37.5686 -97.2133 162° South 128 147 4,000 480 Level Kansas City Center
06:17PM 37.5322 -97.2061 171° South 133 153 4,700 780 Climbing Kansas City Center
06:18PM 37.5067 -97.2006 170° South 110 127 5,400 720 Climbing Kansas City Center
06:18PM 37.5014 -97.2000 175° South 125 144 5,500 660 Climbing Kansas City Center
06:19PM 37.4744 -97.1950 172° South 114 131 6,100 660 Climbing Kansas City Center
06:19PM 37.4703 -97.1936 165° South 119 137 6,200 660 Climbing Kansas City Center
06:20PM 37.4422 -97.1869 169° South 117 135 6,800 840 Climbing Kansas City Center
06:20PM 37.4317 -97.1842 168° South 118 136 7,100 720 Climbing Kansas City Center
06:21PM 37.3981 -97.1775 171° South 118 136 7,800 720 Climbing Kansas City Center
06:22PM 37.3647 -97.1708 171° South 118 136 8,600 720 Climbing Kansas City Center
06:23PM 37.3322 -97.1625 168° South 119 137 9,300 720 Climbing Kansas City Center
06:24PM 37.2983 -97.1586 175° South 120 138 10,100 720 Climbing Kansas City Center
06:25PM 37.2672 -97.1500 168° South 119 137 10,900 720 Climbing Kansas City Center
06:26PM 37.2328 -97.1425 170° South 120 138 11,600 780 Climbing Kansas City Center
06:27PM 37.1844 -97.1331 171° South 140 161 12,600 900 Climbing Kansas City Center
06:28PM 37.1422 -97.1247 171° South 146 168 13,500 840 Climbing Kansas City Center
06:29PM 37.1031 -97.1131 167° South 148 170 14,400 900 Climbing Kansas City Center
06:30PM 37.0625 -97.1047 171° South 148 170 15,400 900 Climbing Kansas City Center
06:31PM 37.0203 -97.0956 170° South 148 170 16,300 720 Climbing Kansas City Center
06:32PM 36.9764 -97.0889 173° South 156 180 16,900 300 Climbing Kansas City Center
06:33PM 36.9269 -97.0772 169° South 172 198 17,000  Climbing Kansas City Center
06:34PM 36.8594 -97.0647 172° South 197 227 17,000  Level Kansas City Center
06:36PM 36.8133 -97.0528 168° South 198 228 17,000  Level Kansas City Center
06:37PM 36.7497 -97.0389 170° South 193 222 17,000  Level Kansas City Center
06:38PM 36.6956 -97.0283 171° South 195 224 17,000  Level Kansas City Center
06:39PM 36.6417 -97.0178 171° South 195 224 17,000  Level Kansas City Center
06:40PM 36.5878 -97.0061 170° South 195 224 17,000  Level Kansas City Center
06:41PM 36.5322 -96.9944 170° South 195 224 17,000  Level Kansas City Center
06:42PM 36.4781 -96.9817 169° South 196 226 17,000  Level Kansas City Center
06:43PM 36.4236 -96.9706 171° South 196 226 17,000  Level Kansas City Center
06:44PM 36.3697 -96.9594 171° South 196 226 17,000  Level Kansas City Center
06:45PM 36.3158 -96.9481 170° South 196 226 17,000  Level Kansas City Center
06:46PM 36.2500 -96.9336 170° South 198 228 17,000  Level Kansas City Center
06:47PM 36.1958 -96.9219 170° South 198 228 17,000  Level Kansas City Center
06:48PM 36.1411 -96.9125 172° South 198 228 17,000  Level Kansas City Center
06:49PM 36.0869 -96.9011 170° South 198 228 17,000  Level Kansas City Center
06:50PM 36.0317 -96.8894 170° South 198 228 17,000  Level Kansas City Center
06:51PM 35.9778 -96.8786 171° South 199 229 17,000  Level Kansas City Center
06:52PM 35.9219 -96.8669 170° South 199 229 17,000  Level Kansas City Center
06:53PM 35.8656 -96.8547 170° South 200 230 17,000  Level Kansas City Center
06:54PM 35.7981 -96.8408 171° South 202 232 17,000  Level Kansas City Center
06:55PM 35.7433 -96.8278 169° South 202 232 17,000  Level Kansas City Center
06:56PM 35.6869 -96.8172 171° South 202 232 17,000  Level Kansas City Center
06:57PM 35.6308 -96.8061 171° South 202 232 17,000  Level Kansas City Center
06:58PM 35.5636 -96.7936 171° South 202 232 17,000  Level Fort Worth Center
06:59PM 35.5078 -96.7819 170° South 203 234 17,000  Level Fort Worth Center
07:00PM 35.4514 -96.7700 170° South 203 234 17,000  Level Fort Worth Center
07:01PM 35.3953 -96.7583 170° South 203 234 17,000  Level Fort Worth Center
07:02PM 35.3392 -96.7464 170° South 203 234 17,000 -60 Level Fort Worth Center
07:03PM 35.2817 -96.7353 171° South 203 234 16,900 -60 Descending Fort Worth Center
07:04PM 35.2242 -96.7236 171° South 205 236 16,900  Level Fort Worth Center
07:05PM 35.1578 -96.7111 171° South 205 236 16,900  Level Fort Worth Center
07:06PM 35.1039 -96.7092 178° South 197 227 16,900  Level Fort Worth Center
07:08PM 35.0489 -96.7047 176° South 197 227 16,900  Level Fort Worth Center
07:09PM 34.9936 -96.7008 177° South 197 227 16,900  Level Fort Worth Center
07:10PM 34.9394 -96.6986 178° South 197 227 16,900  Level Fort Worth Center
07:11PM 34.8847 -96.6931 175° South 197 227 16,900  Level Fort Worth Center
07:12PM 34.8281 -96.6886 176° South 198 228 16,900 -240 Level Fort Worth Center
07:13PM 34.7647 -96.6867 179° South 196 226 16,500 -480 Descending Fort Worth Center
07:14PM 34.7111 -96.6808 175° South 195 224 16,000 -480 Descending Fort Worth Center
07:15PM 34.6608 -96.6775 177° South 186 214 15,600 -480 Descending Fort Worth Center
07:16PM 34.6092 -96.6739 177° South 186 214 15,100 -540 Descending Fort Worth Center
07:17PM 34.5575 -96.6706 177° South 186 214 14,600 -480 Descending Fort Worth Center
07:18PM 34.5069 -96.6678 177° South 185 213 14,200 -480 Descending Fort Worth Center
07:19PM 34.4556 -96.6633 176° South 185 213 13,700 -540 Descending Fort Worth Center
07:20PM 34.3947 -96.6375 161° South 192 221 13,200 -480 Descending Fort Worth Center
07:21PM 34.3433 -96.6103 156° South 197 227 12,800 -420 Descending Fort Worth Center
07:22PM 34.2958 -96.5789 151° Southeast 197 227 12,400 -480 Descending Fort Worth Center
07:23PM 34.2481 -96.5503 154° Southeast 196 226 11,900 -420 Descending Fort Worth Center
07:24PM 34.2039 -96.5178 149° Southeast 191 220 11,600 -420 Descending Fort Worth Center
07:25PM 34.1575 -96.4836 149° Southeast 192 221 11,100 -480 Descending Fort Worth Center
07:26PM 34.1114 -96.4494 148° Southeast 194 223 10,700 -540 Descending Fort Worth Center
07:27PM 34.0583 -96.4072 147° Southeast 193 222 10,000 -600 Descending Fort Worth Center
07:28PM 34.0183 -96.3694 142° Southeast 186 214 9,500 -480 Descending Fort Worth Center
07:29PM 33.9761 -96.3800 192° South 175 201 9,100 -480 Descending Fort Worth Center
07:30PM 33.9350 -96.3958 198° South 161 185 8,600 -540 Descending Fort Worth Center
07:31PM 33.8942 -96.4139 200° South 158 182 8,100 -540 Descending Fort Worth Center
07:32PM 33.8525 -96.4289 197° South 158 182 7,600 -540 Descending Fort Worth Center
07:33PM 33.8064 -96.4494 200° South 158 182 7,100 -540 Descending Fort Worth Center
07:34PM 33.7608 -96.4681 199° South 158 182 6,600 -480 Descending Fort Worth Center
07:35PM 33.7178 -96.4864 200° South 161 185 6,200 -300 Descending Fort Worth Center
07:36PM 33.6731 -96.5047 199° South 169 194 6,000 -120 Descending Fort Worth Center
07:37PM 33.6247 -96.5236 198° South 170 196 6,000  Level Fort Worth Center
07:38PM 33.5811 -96.5425 200° South 169 194 6,000  Level Fort Worth Center
07:39PM 33.5381 -96.5597 198° South 167 192 6,000  Level Fort Worth Center
07:40PM 33.4931 -96.5789 200° South 162 186 6,000  Level Fort Worth Center
07:41PM 33.4525 -96.5958 199° South 156 180 6,000  Level Fort Worth Center
07:42PM 33.4217 -96.6319 224° Southwest 155 178 6,000 -240 Level Fort Worth Center
07:44PM 33.3917 -96.6769 231° Southwest 157 181 5,600 -540 Descending Fort Worth Center
07:45PM 33.3536 -96.7053 212° Southwest 160 184 5,000 -600 Descending Fort Worth Center
07:46PM 33.3136 -96.7306 208° Southwest 163 188 4,400 -540 Descending Fort Worth Center
07:47PM 33.2703 -96.7622 211° Southwest 167 192 3,900 -540 Descending Fort Worth Center
07:48PM 33.2306 -96.7922 212° Southwest 167 192 3,400 -480 Descending Fort Worth Center
07:49PM 33.1914 -96.8219 212° Southwest 168 193 3,000 -300 Descending Fort Worth Center
07:50PM 33.1567 -96.8469 211° Southwest 138 159 2,800 -420 Descending Fort Worth Center
07:51PM 33.1206 -96.8725 211° Southwest 140 161 2,200 -420 Descending Fort Worth Center
07:52PM 33.0825 -96.8808 190° South 137 158 2,000 -180 Descending Fort Worth Center
07:53PM 33.0500 -96.8697 164° South 125 144 1,900 -300 Descending Fort Worth Center
07:54PM 33.0144 -96.8564 163° South 126 145 1,400 -600 Descending Fort Worth Center
07:55PM 32.9811 -96.8417 160° South 129 148 700 -720 Descending Fort Worth Center
07:57PM 32.9667 -96.8333 157° South  Level FlightAware Approximate
08:04PM 32.9686 -96.8364 157° South  Level Estimated